Regional Weather Roundup
Issued by NWS Charleston, SC

Current Version | Previous Version | Graphics & Text | Print | Product List | Glossary On
Versions: 1 2 3 4 5 6 7 8 9 10 11 12 13 14 15 16 17 18 19 20 21 22 23 24 25 26 27 28 29 30 31 32 33 34 35 36 37 38 39 40 41 42 43 44 45 46 47 48 49 50
000 ASUS42 KCHS 282227 RWRCHS REGIONAL WEATHER ROUNDUP NATIONAL WEATHER SERVICE CHARLESTON SC 600 PM EDT FRI AUG 28 2015 NOTE: "FAIR" INDICATES FEW OR NO CLOUDS BELOW 12,000 FEET WITH NO SIGNIFICANT WEATHER AND/OR OBSTRUCTIONS TO VISIBILITY. NOT ALL STATIONS ARE QUALITY CONTROLLED BY THE NATIONAL WEATHER SERVICE. USE DATA WITH CAUTION...ESPECIALLY DEWPOINT OBSERVATIONS. SCZ027-030-031-034>040-042>050-282300- ...SOUTHEAST SOUTH CAROLINA... CITY SKY/WX TMP DP RH WIND PRES REMARKS N CHARLESTON CLOUDY 80 72 76 E8 30.09R WATERFRONT PRK N/A 82 74 77 E16 30.05R MOUNT PLEASANT FAIR 81 72 74 NE5 30.09R JOHNS ISLAND FAIR 81 72 74 NE10G17 30.09R PINOPOLIS N/A 86 68 54 NE13 30.01F MONCKS CORNER FAIR 82 70 65 CALM 30.09R SUMMERVILLE FAIR 82 70 65 N3 30.10R BEAUFORT MCAS TSTM 76 73 91 E9 30.09F BEAUFORT ARPT RAIN 73 73 100 NE10 30.09R HILTON HEAD IS PTSUNNY 82 73 74 NE10 30.09R WALTERBORO MOCLDY 82 72 69 SE9 30.10R ALLENDALE FAIR 82 72 69 CALM 30.07S ...SOUTHERN MIDLANDS AND PEE DEE... CITY SKY/WX TMP DP RH WIND PRES REMARKS GEORGETOWN NOT AVBL KINGSTREE NOT AVBL ORANGEBURG CLOUDY 84 64 50 VRB6 30.09S BARNWELL FAIR 82 70 65 E6 30.09S AIKEN FAIR 82 61 47 E8 30.13S MANNING FAIR 81 61 50 N3 30.10R COLUMBIA PTSUNNY 88 56 33 E10 30.09R SUMTER PTSUNNY 84 57 38 NE9 30.08S FLORENCE PTSUNNY 85 59 41 E8 30.10S MYRTLE BEACH MOSUNNY 82 64 54 N12 30.11R N MYRTLE BEACH MOSUNNY 83 65 54 NE10 30.09S $$ GAZ063-065-086>088-099>101-113>116-118-119-134>141-150-282300- ...SOUTHEAST GEORGIA... CITY SKY/WX TMP DP RH WIND PRES REMARKS SAVANNAH ARPT PTSUNNY 84 71 65 NE6 30.06 HUNTER AAF PTSUNNY 79 75 89 N6G20 30.05R FORT STEWART CLOUDY 83 73 72 VRB2 30.04F STATESBORO CLOUDY 81 76 85 CALM 30.07S SYLVANIA CLOUDY 82 76 82 E3 30.09R CLAXTON NOT AVBL ...CSRA...CENTRAL AND FAR SOUTHEAST GEORGIA... CITY SKY/WX TMP DP RH WIND PRES REMARKS THOMSON CLOUDY 85 71 61 E6 30.13S HX 90 AUGUSTA-BUSH CLOUDY 84 68 58 SE3 30.07S AUGUSTA-DANIEL CLOUDY 85 66 53 E9 30.09S SWAINSBORO FAIR 82 73 74 E3 30.08F VIDALIA CLOUDY 81 72 74 E7 30.07F EASTMAN FAIR 81 74 79 E6 30.08F HAZLEHURST FAIR 80 76 86 CALM 30.05F ALMA PTSUNNY 78 75 90 CALM 30.05F WAYCROSS PTSUNNY 83 78 86 E8 30.06S HX 92 JESUP FAIR 86 77 74 E9 30.06S HX 97 BAXLEY FAIR 82 73 74 E5 30.05F BRUNSWICK CLOUDY 79 77 94 CALM 30.06S SAINT SIMONS LGT RAIN 80 76 87 NE7 30.04F $$ SCZ027-028-034-036>038-045-046-048>050-GAZ119-141-282300- ...LAKE AND SUPPLEMENTAL COASTAL OBSERVATIONS... STATION/POSITION TIME TEMP WIND PRES WAVE SWELL AIR SEA DIR/SP/G HT/PER HT/PER/DIR (UTC) (F) (DEG/KT/KT) (MB) (FT/S) (FT/S/D) UPR LAKE MARION NOT AVBL WINYAH BAY 2100 81 70/ 12 1018.0F LAKE MURRAY 2100 86 80/ 9/ 11 1018.3F ACE BASIN NERRS NOT AVBL FORT PULASKI NOT AVBL SAPELO ISLAND 2200 80 40/ 5 1017.0F $$ ANZ835-935-AMZ111-154-330-350-352-354-370-450-454-472-282300- ...C-MAN AND BUOY OBSERVATIONS... STATION/POSITION TIME TEMP WIND PRES WAVE SWELL AIR SEA DIR/SP/G HT/PER HT/PER/DIR (UTC) (F) (DEG/KT/KT) (MB) (FT/S) (FT/S/D) BUOY 41004 2150 80 84 60/ 19/ 23 1017.4R 5/ 5 2/ 8 BUOY 41008 2150 82 85 70/ 14/ 14 1017.4F 3/ 8 2/100/ 8 FOLLY BEACH CMAN 2200 81 60/ 16/ 19 1019.2R CAPERS NEARSHORE NOT AVBL FRIPP NEARSHORE 2100 84 70/ 16/ 17 1017.6F STATION/POSITION TIME TEMP WIND PRES WAVE SWELL AIR SEA DIR/SP/G HT/PER HT/PER/DIR (UTC) (F) (DEG/KT/KT) (MB) (FT/S) (FT/S/D) 5E ST. MARYS GA 2121 86 N/A 3/ 8 2/ 90/12 FRYING PAN BUOY 2150 81 81 60/ 19/ 23 1018.9F 5/ 6 2/140/11 BUOY 41025 2150 80 84 30/ 17/ 21 1019.5R 5/ 8 3/100/ 8 CAPE LOOKOUT NC 2200 78 50/ 19/ 21 1019.6R BUOY 41002 2150 82 84 200/ 6/ 8 1017.9R 3/10 3/100/10 BUOY 41010 2120 82 86 20/ 4/ 6 1017.0R ST AUGUSTINE FL 2200 83 87 100/ 10/ 12 1017.7R $$

USA.gov is the U.S. government's official web portal to all federal, state and local government web resources and services.